C/2010 S1 ( LINEAR )

Japanese version
Home page
Updated on April 20, 2014

---------------------------------------------------------------------

* Profile

Discovery Date September 21, 2010
Magnitude 18.4 mag
Discoverer Lincoln Laboratory Near-Earth Asteroid Research project

* Pictures

* Orbital Elements

Epoch 2013 May 28.0 TT = JDT 2456440.5
T 2013 May 20.30285 TT                                  MPC
q   5.8998763            (2000.0)            P               Q
z  -0.0003231      Peri.  118.61509     +0.53547062     -0.22397049
 +/-0.0000001      Node    93.43035     -0.69560524     -0.66377198
e   1.0019061      Incl.  125.33580     +0.47896197     -0.71361333
From 7002 observations 2010 Sept. 21-2014 Apr. 12, mean residual 0".4.

* Finding Charts

* Magnitudes Graph

        m1 = -2.0 + 5 log d + 15.0 log r

---------------------------------------------------------------------

The orbital elements are published on M.P.E.C. 2014-G81.
The charts are made with StellaNavigator Ver.8 (AstroArts).
The magnitudes graphs are made with Comet for Windows.

---------------------------------------------------------------------

Copyright(C) Seiichi Yoshida (comet@aerith.net). All rights reserved.